Hourly Weather Roundup
Issued by NWS Central Illinois

Home | Current Version | Previous Version | Text Only | Print | Product List | Glossary On
Versions: 1 2 3 4 5 6 7 8 9 10 11 12 13 14 15 16 17 18 19 20 21 22 23 24 25 26 27 28 29 30 31 32 33 34 35 36 37 38 39 40 41 42 43 44 45 46 47 48 49 50
000
NZUS43 KILX 310210
HWRILX

AREA WEATHER ROUNDUP
NATIONAL WEATHER SERVICE, LINCOLN IL
900 PM CDT THU JUL 30 2015


CITY           SKY/WX    TMP DP  RH WIND       PRES   REMARKS
BLOOMINGTON    CLEAR     78  65  64 W8        30.07S HX  80
CHAMPAIGN      CLEAR     72  68  87 W5        30.06S
DANVILLE       CLEAR     67  66  97 CALM      30.03S
DECATUR        CLEAR     80  64  58 W5        30.07S HX  82
EFFINGHAM      PTCLDY    74  64  71 CALM      30.09S
FLORA          PTCLDY    76  64  67 W3        30.08S
GALESBURG      CLEAR     75  66  72 W5        30.07S
JACKSONVILLE   CLEAR     76  68  78 SW6       30.08S
LACON          CLEAR     75  67  75 W3        30.04R
LAWRENCEVILLE  PTCLDY    76  67  73 W6        30.07R
LITCHFIELD     PTCLDY    72  66  83 SW5       30.10S
$$


CITY           SKY/WX    TMP DP  RH WIND       PRES   REMARKS
LINCOLN        CLEAR     81  64  57 CALM      30.06R HX  82
MACOMB         CLEAR     72  67  83 W3        30.10R
MATTOON        CLEAR     74  64  71 SW3       30.06S
MT CARMEL AP   PTCLDY    75  70  83 W3        30.07R
OLNEY-NOBLE AP MOCLDY    73  66  78 W5        30.08S
PARIS          CLEAR     70  67  89 CALM      30.06S
PEORIA         CLEAR     79  64  60 W6        30.06S HX  81
PONTIAC        CLEAR     74  69  84 W7        30.05R
RANTOUL        CLEAR     76  68  77 CALM      30.06R
ROBINSON       PTCLDY    71  68  89 W5        30.07R
SPRINGFIELD    CLEAR     74  68  81 W7        30.07S
TAYLORVILLE    CLEAR     70  66  88 W5        30.08S
$$

...REGIONAL REPORTS...


CITY           SKY/WX    TMP DP  RH WIND       PRES   REMARKS
CHICAGO O`HARE CLEAR     80  59  48 W8        29.99S HX  81
KANKAKEE       CLEAR     72  66  83 SW5       30.04R
MOLINE         CLEAR     75  66  73 SW5       30.05R
MOUNT STERLING NOT AVBL
MOUNT VERNON   PTCLDY    72  63  73 CALM      30.10R
PITTSFIELD     CLEAR     78  67  68 W3        30.11S HX  80
QUINCY         CLEAR     75  67  76 SW5       30.10S
ROCKFORD       CLEAR     74  60  61 W6        30.03R
$$


CITY           SKY/WX    TMP DP  RH WIND       PRES   REMARKS
BURLINGTON     CLEAR     74  67  78 W3        30.08R
CEDAR RAPIDS   CLEAR     71  68  90 W6        30.06S
DES MOINES     PTCLDY    77  64  64 W6        30.09S
KIRKSVILLE     CLEAR     74  66  76 SW5       30.13S
OTTUMWA        CLEAR     71  66  84 W6        30.07S
ST LOUIS       PTCLDY    81  63  54 NW3       30.11R HX  82
$$


CITY           SKY/WX    TMP DP  RH WIND       PRES   REMARKS
TERRE HAUTE    CLEAR     70  65  84 CALM      30.05S
EVANSVILLE     CLEAR     78  65  63 W5        30.08R HX  80
INDIANAPOLIS   PTCLDY    75  60  59 W6        30.04S
LAFAYETTE      CLEAR     71  64  78 W3        30.03S
MADISON        CLEAR     76  55  48 CALM      30.00R
MILWAUKEE      CLEAR     81  52  36 W7        29.97S HX  80
$$




USA.gov is the U.S. government's official web portal to all federal, state and local government web resources and services.